Rugby, ND

8:54 PM CST on December 14, 2019 (GMT -0600)
Rugby Municipal

Weather History for KRUG - October, 2019

Change the Weather History Date:

Wednesday, October 9, 2019

  Actual Average Record
Temperature  
Mean Temperature 42 °F -  
Max Temperature 51 °F 58 °F 82 °F (1955)
Min Temperature 32 °F 33 °F 12 °F (1985)
Degree Days  
Heating Degree Days 24    
Moisture  
Dew Point 36 °F    
Average Humidity 95    
Maximum Humidity 100    
Minimum Humidity 82    
Precipitation  
Precipitation 0.00 in - - ()
Sea Level Pressure  
Sea Level Pressure 29.88 in    
Wind  
Wind Speed 16 mph (North)    
Max Wind Speed 24 mph    
Max Gust Speed 32 mph    
Visibility 8 miles    
Events      
Averages and records for this station are not official NWS values.
T = Trace of Precipitation, MM = Missing Value Source: NWS Daily Summary

Daily Weather History Graph

Daily Weather History Graph

Search for Another Location

Airport or City:

Astronomy

Oct. 09, 2019 Rise Set
Actual Time 7:50 AM CDT 7:03 PM CDT
Civil Twilight 7:19 AM CDT 7:34 PM CDT
Nautical Twilight 6:43 AM CDT 8:10 PM CDT
Astronomical Twilight 6:06 AM CDT 8:46 PM CDT
Moon 5:59 PM CDT (10/9) 3:11 AM CDT (10/9)
Length of Visible Light 12h 14m
Length of Day
11h 12m
Waxing Gibbous, 85% of the Moon is Illuminated
Oct 9
Waxing Gibbous
Oct 13
Full
Oct 21
Last Quarter
Oct 27
New
Nov 4
First Quarter

Hourly Weather History & Observations

Time (CDT) Temp. Windchill Dew Point Humidity Pressure Visibility Wind Dir Wind Speed Gust Speed Precip Events Conditions
12:15 AM 51.8 °F - 46.4 °F 82% 29.63 in 10.0 mi NE 9.2 mph 15.0 mph N/A   Clear
12:35 AM 50.0 °F - 46.4 °F 87% 29.64 in 10.0 mi NE 9.2 mph - N/A   Clear
12:55 AM 48.2 °F - 46.4 °F 93% 29.66 in 9.0 mi North 15.0 mph - N/A   Clear
1:15 AM 48.2 °F - 44.6 °F 87% 29.67 in 10.0 mi North 9.2 mph - N/A   Clear
1:35 AM 44.6 °F 40.7 °F 44.6 °F 100% 29.67 in 8.0 mi NNW 6.9 mph - N/A   Clear
1:55 AM 44.6 °F 40.2 °F 44.6 °F 100% 29.68 in 9.0 mi NNW 8.1 mph - N/A   Clear
2:15 AM 44.6 °F 40.7 °F 44.6 °F 100% 29.69 in 8.0 mi North 6.9 mph 12.7 mph N/A   Scattered Clouds
2:35 AM 46.4 °F 40.1 °F 44.6 °F 93% 29.70 in 9.0 mi North 15.0 mph - N/A   Overcast
2:55 AM 44.6 °F 35.9 °F 44.6 °F 100% 29.70 in 10.0 mi North 23.0 mph - N/A   Overcast
3:15 AM 44.6 °F 37.2 °F 42.8 °F 93% 29.71 in 10.0 mi NNE 17.3 mph 27.6 mph N/A   Overcast
3:35 AM 44.6 °F 37.2 °F 42.8 °F 93% 29.70 in 10.0 mi NNE 17.3 mph 25.3 mph N/A   Overcast
4:15 AM 42.8 °F 33.5 °F 39.2 °F 87% 29.70 in 10.0 mi NNE 23.0 mph 28.8 mph N/A   Overcast
4:35 AM 41.0 °F 31.4 °F 39.2 °F 93% 29.71 in 10.0 mi NNE 21.9 mph 29.9 mph N/A   Overcast
4:55 AM 41.0 °F 32.2 °F 39.2 °F 93% 29.72 in 10.0 mi North 18.4 mph - N/A   Overcast
5:15 AM 41.0 °F 32.2 °F 39.2 °F 93% 29.73 in 10.0 mi NNE 18.4 mph 25.3 mph N/A   Overcast
5:35 AM 39.2 °F 29.3 °F 39.2 °F 100% 29.77 in 10.0 mi North 20.7 mph - N/A   Overcast
5:55 AM 39.2 °F 29.8 °F 37.4 °F 93% 29.78 in 10.0 mi North 18.4 mph 24.2 mph N/A   Overcast
6:15 AM 39.2 °F 29.0 °F 37.4 °F 93% 29.77 in 9.0 mi NNE 21.9 mph 28.8 mph N/A   Overcast
6:35 AM 39.2 °F 30.8 °F 37.4 °F 93% 29.78 in 10.0 mi North 15.0 mph 23.0 mph N/A   Overcast
6:55 AM 39.2 °F 30.8 °F 37.4 °F 93% 29.80 in 10.0 mi NNE 15.0 mph 24.2 mph N/A   Overcast
7:15 AM 39.2 °F 31.2 °F 37.4 °F 93% 29.80 in 10.0 mi NNE 13.8 mph 25.3 mph N/A   Overcast
7:35 AM 39.2 °F 29.3 °F 37.4 °F 93% 29.79 in 10.0 mi NNE 20.7 mph 27.6 mph N/A   Overcast
7:55 AM 39.2 °F 29.3 °F 37.4 °F 93% 29.78 in 10.0 mi NE 20.7 mph 27.6 mph N/A   Overcast
8:15 AM 39.2 °F 29.3 °F 37.4 °F 93% 29.79 in 10.0 mi NNE 20.7 mph 29.9 mph N/A   Overcast
8:35 AM 39.2 °F 28.7 °F 35.6 °F 87% 29.80 in 10.0 mi NNE 23.0 mph - N/A   Overcast
8:55 AM 39.2 °F 29.0 °F 35.6 °F 87% 29.80 in 10.0 mi NNE 21.9 mph 28.8 mph N/A   Overcast
9:15 AM 37.4 °F 26.1 °F 35.6 °F 93% 29.80 in 10.0 mi NNE 24.2 mph - N/A   Overcast
9:35 AM 37.4 °F 26.4 °F 35.6 °F 93% 29.81 in 9.0 mi NNE 23.0 mph 32.2 mph N/A   Overcast
9:55 AM 39.2 °F 29.0 °F 35.6 °F 87% 29.81 in 10.0 mi North 21.9 mph 27.6 mph N/A   Overcast
10:15 AM 37.4 °F 26.4 °F 35.6 °F 93% 29.81 in 10.0 mi NNE 23.0 mph 28.8 mph N/A   Overcast
10:35 AM 37.4 °F 26.1 °F 35.6 °F 93% 29.81 in 10.0 mi NNE 24.2 mph 29.9 mph N/A   Overcast
11:35 AM 37.4 °F 26.9 °F 35.6 °F 93% 29.86 in 3.0 mi NNE 20.7 mph - N/A   Overcast
11:55 AM 37.4 °F 27.5 °F 37.4 °F 100% 29.86 in 1.2 mi North 18.4 mph - N/A   Overcast
12:15 PM 37.4 °F 27.5 °F 37.4 °F 100% 29.86 in 1.5 mi North 18.4 mph 28.8 mph N/A   Mostly Cloudy
12:35 PM 35.6 °F 24.2 °F 35.6 °F 100% 29.85 in 1.8 mi North 21.9 mph 27.6 mph N/A   Scattered Clouds
12:55 PM 35.6 °F 24.0 °F 35.6 °F 100% 29.86 in 2.0 mi North 23.0 mph - N/A   Partly Cloudy
1:15 PM 35.6 °F 24.2 °F 35.6 °F 100% 29.88 in 2.0 mi North 21.9 mph - N/A   Scattered Clouds
1:35 PM 35.6 °F 24.8 °F 35.6 °F 100% 29.89 in 1.0 mi North 19.6 mph 25.3 mph N/A   Scattered Clouds
1:55 PM 35.6 °F 24.5 °F 35.6 °F 100% 29.89 in 1.0 mi North 20.7 mph - N/A   Unknown
2:15 PM 35.6 °F 25.9 °F 35.6 °F 100% 29.90 in 1.2 mi North 16.1 mph - N/A   Scattered Clouds
2:35 PM 35.6 °F 24.8 °F 35.6 °F 100% 29.91 in 1.8 mi North 19.6 mph 26.5 mph N/A   Scattered Clouds
2:55 PM 35.6 °F 25.2 °F 35.6 °F 100% 29.91 in 1.8 mi North 18.4 mph 26.5 mph N/A   Scattered Clouds
3:15 PM 35.6 °F 24.5 °F 35.6 °F 100% 29.91 in 2.0 mi North 20.7 mph - N/A   Partly Cloudy
3:35 PM 35.6 °F 25.5 °F 35.6 °F 100% 29.93 in 2.5 mi North 17.3 mph - N/A   Scattered Clouds
3:55 PM 35.6 °F 24.8 °F 35.6 °F 100% 29.94 in 2.5 mi North 19.6 mph 25.3 mph N/A   Partly Cloudy
4:15 PM 35.6 °F 26.2 °F 35.6 °F 100% 29.94 in 1.8 mi North 15.0 mph 26.5 mph N/A   Scattered Clouds
4:35 PM 33.8 °F 22.5 °F 33.8 °F 100% 29.96 in 2.0 mi North 19.6 mph 25.3 mph N/A   Partly Cloudy
4:55 PM 33.8 °F 23.2 °F 33.8 °F 100% 29.97 in 1.8 mi North 17.3 mph 24.2 mph N/A   Scattered Clouds
5:15 PM 33.8 °F 22.2 °F 33.8 °F 100% 29.98 in 1.8 mi North 20.7 mph - N/A   Scattered Clouds
5:35 PM 33.8 °F 23.5 °F 33.8 °F 100% 29.99 in 2.0 mi North 16.1 mph 23.0 mph N/A   Partly Cloudy
5:55 PM 33.8 °F 22.8 °F 33.8 °F 100% 30.00 in 4.0 mi North 18.4 mph - N/A   Scattered Clouds
6:15 PM 33.8 °F 22.2 °F 33.8 °F 100% 30.00 in 9.0 mi North 20.7 mph - N/A   Scattered Clouds
6:35 PM 33.8 °F 23.9 °F 33.8 °F 100% 30.02 in 10.0 mi North 15.0 mph - N/A   Mostly Cloudy
6:55 PM 33.8 °F 23.2 °F 32.0 °F 93% 30.00 in 10.0 mi North 17.3 mph 25.3 mph N/A   Overcast
7:15 PM 33.8 °F 22.8 °F 32.0 °F 93% 30.03 in 10.0 mi North 18.4 mph - N/A   Overcast
7:35 PM 33.8 °F 23.2 °F 32.0 °F 93% 30.04 in 10.0 mi North 17.3 mph 25.3 mph N/A   Overcast
7:55 PM 33.8 °F 22.8 °F 32.0 °F 93% 30.04 in 10.0 mi North 18.4 mph - N/A   Overcast
8:15 PM 33.8 °F 23.2 °F 32.0 °F 93% 30.06 in 10.0 mi North 17.3 mph 25.3 mph N/A   Overcast
8:35 PM 33.8 °F 22.8 °F 32.0 °F 93% 30.06 in 10.0 mi North 18.4 mph - N/A   Overcast
8:55 PM 33.8 °F 22.5 °F 30.2 °F 87% 30.09 in 10.0 mi North 19.6 mph - N/A   Overcast
9:15 PM 33.8 °F 22.8 °F 30.2 °F 87% 30.08 in 10.0 mi North 18.4 mph 26.5 mph N/A   Overcast
9:35 PM 33.8 °F 23.2 °F 30.2 °F 87% 30.10 in 10.0 mi North 17.3 mph - N/A   Overcast
9:55 PM 32.0 °F 20.5 °F 30.2 °F 93% 30.09 in 10.0 mi North 18.4 mph - N/A   Overcast
10:15 PM 32.0 °F 20.5 °F 30.2 °F 93% 30.09 in 10.0 mi North 18.4 mph - N/A   Overcast
10:35 PM 32.0 °F 20.5 °F 30.2 °F 93% 30.09 in 10.0 mi North 18.4 mph - N/A   Overcast
10:55 PM 32.0 °F 21.2 °F 30.2 °F 93% 30.11 in 10.0 mi NNW 16.1 mph 23.0 mph N/A   Overcast
11:15 PM 32.0 °F 21.2 °F 30.2 °F 93% 30.13 in 10.0 mi North 16.1 mph 23.0 mph N/A   Overcast
11:35 PM 32.0 °F 20.8 °F 30.2 °F 93% 30.13 in 10.0 mi NNW 17.3 mph - N/A   Overcast
11:55 PM 32.0 °F 21.2 °F 30.2 °F 93% 30.14 in 10.0 mi North 16.1 mph 21.9 mph N/A   Overcast